This is the latest recevied weather packets stored in our database for station/object PD2BVG. If no packets are shown the sender has not sent any weather packets the latest 1 day(s).
| Time | Temp. | Humidity | Pressure | Rain* | Wind** | Luminosity | Snow |
|---|---|---|---|---|---|---|---|
| 1778073361 | 14.44° C | 72% | 1010.9 hPa | 0 mm | - | 348 W/m² | - |
| 1778073298 | 14.44° C | 73% | 1010.9 hPa | 0 mm | - | 390 W/m² | - |
| 1778073237 | 14.44° C | 72% | 1010.9 hPa | 0 mm | - | 654 W/m² | - |
| 1778073178 | 14.44° C | 72% | 1010.9 hPa | 0 mm | - | 654 W/m² | - |
| 1778073120 | 14.44° C | 74% | 1010.8 hPa | 0 mm | - | 434 W/m² | - |
| 1778073059 | 14.44° C | 74% | 1010.7 hPa | 0 mm | - | 675 W/m² | - |
| 1778072936 | 14.44° C | 72% | 1010.8 hPa | 0 mm | - | 674 W/m² | - |
| 1778072752 | 14.44° C | 72% | 1010.9 hPa | 0 mm | - | 269 W/m² | - |
| 1778072382 | 14.44° C | 74% | 1010.7 hPa | 0 mm | - | 716 W/m² | - |
| 1778072322 | 13.89° C | 74% | 1010.7 hPa | 0 mm | - | 728 W/m² | - |
| 1778072266 | 13.89° C | 74% | 1010.7 hPa | 0 mm | - | 730 W/m² | - |
| 1778071957 | 14.44° C | 75% | 1010.6 hPa | 0 mm | - | 380 W/m² | - |
| 1778071838 | 14.44° C | 73% | 1010.5 hPa | 0 mm | - | 239 W/m² | - |
| 1778071597 | 15° C | 74% | 1010.6 hPa | 0 mm | - | 426 W/m² | - |
| 1778071353 | 14.44° C | 73% | 1010.7 hPa | 0 mm | - | 204 W/m² | - |
| 1778071174 | 14.44° C | 74% | 1010.6 hPa | 0 mm | - | 654 W/m² | - |
| 1778070873 | 14.44° C | 74% | 1010.7 hPa | 0 mm | - | 638 W/m² | - |
| 1778070813 | 14.44° C | 74% | 1010.6 hPa | 0 mm | - | 644 W/m² | - |
| 1778070754 | 14.44° C | 73% | 1010.6 hPa | 0 mm | - | 732 W/m² | - |
| 1778070634 | 14.44° C | 73% | 1010.6 hPa | 0 mm | - | 744 W/m² | - |
| 1778070573 | 14.44° C | 72% | 1010.6 hPa | 0 mm | - | 424 W/m² | - |
| 1778070396 | 15° C | 73% | 1010.6 hPa | 0 mm | - | 433 W/m² | - |
| 1778070336 | 15° C | 72% | 1010.6 hPa | 0 mm | - | 863 W/m² | - |
| 1778070213 | 15° C | 73% | 1010.7 hPa | 0 mm | - | 768 W/m² | - |
| 1778069793 | 14.44° C | 73% | 1010.6 hPa | 0 mm | - | 754 W/m² | - |
* Rain latest hour (hover to see other rain measurements)
** Current wind speed in m/s (hover to see current wind gust speed)